星链-2100 (STARLINK-2100 )

导读 | 星芒AI

STARLINK-2100 是星链(Starlink)卫星互联网项目中的一颗低轨道通信卫星,由SpaceX研发并发射。该卫星采用先进推进系统和激光通信技术,旨在为全球用户提供高速、低延迟的互联网服务。作为星链计划的重要组成部分,STARLINK-2100 支持偏远地区网络覆盖,提升全球通信能力。其部署有助于构建更稳定、高效的卫星互联网网络,推动数字包容与技术创新。

基本信息
目录编号:
47380
目录名称:
STARLINK-2100
国际标识:
2021-005AH
轨道中心:
EARTH
卫星名称:
星链-2100
卫星全名:
星链-2100 (STARLINK-2100 )
卫星状态:
在轨 (已飞行1791 天)
发射日期:
2021-01-20 UTC
国别 :
美国 (US)
星等 :
--
轨道信息
数据来源 国际轨道数据 AOE轨道数据
星历时间 2025-12-16T04:57:36+0800
19小时前
查看轨道信息
2025-12-12T10:00:00+0800
4天前
查看轨道信息
半长轴 6925.363km 6925.341km
偏心率 0.0001546 0.0001935
轨道倾角 53.057° 53.057°
近地点辐角 101.038° 47.364°
升交点赤经 47.885° 64.901°
平近点角 259.079° 268.155°
近地点 546.157km 545.865km
远地点 548.299km 548.547km
周期 95.592分钟 95.592分钟
每日圈数 15.063955 15.064025
详细信息
固有亮度:
5
最大亮度:
2.5
卫星平台:
Starlink V1.0
覆盖范围:
全球
运营商:
太空探索技术公司
运营商所在国:
美国
制造商(研发单位):
太空探索技术公司
制造商所在国:
美国
使用方式:
暂无
卫星简介
星链(Starlink)计划是由太空探索技术公司(SpaceX)提出的一个巨型低轨卫星互联网星座项目,计划在2019年至2024年间在太空搭建由约1.2万颗卫星组成的“星链”网络,其中1584颗将部署在地球上空550千米处的近地轨道,并从2020年开始工作。该卫星仍在工作。
2D轨道图
3D轨道图
轨道高度分析图
轨道倾角分析图
轨道综合分析图
查看轨道综合分析图